Location: Zagreb
(45.8000°N, 16.0000°E)
Time: 12:00:13
(UTC+01:00)

Transit 2A Rocket - Pass Details

Date: 08 October 2020
Orbit: 586 x 916 km, 66.7° (Epoch: 28 October)

Event Time Altitude Azimuth Distance (km) Brightness Sun altitude
Rises 18:29:48 0° 286° (WNW) 3,550 9.9 -2.1°
Reaches altitude 10° 18:34:13 10° 316° (NW) 2,584 8.3 -2.9°
Maximum altitude 18:36:34 12° 339° (NNW) 2,401 7.8 -3.3°
Drops below altitude 10° 18:38:53 10° 2° (N) 2,534 7.6 -3.7°
Sets 18:43:08 0° 32° (NNE) 3,405 8.0 -4.4°
